Regional Weather Roundup
Issued by NWS San Angelo, TX

Home | Current Version | Previous Version | Text Only | Print | Product List | Glossary On
Versions: 1 2 3 4 5 6 7 8 9 10 11 12 13 14 15 16 17 18 19 20 21 22 23 24 25 26 27 28 29 30 31 32 33 34 35 36 37 38 39 40 41 42 43 44 45 46 47 48 49 50
000
ASUS44 KSJT 271810
RWRSJT
WEST CENTRAL TEXAS REGIONAL WEATHER ROUNDUP
NATIONAL WEATHER SERVICE SAN ANGELO TX
100 PM CDT MON APR 27 2015

NOTE: "FAIR" INDICATES FEW OR NO CLOUDS BELOW 12,000 FEET WITH NO
SIGNIFICANT WEATHER AND/OR OBSTRUCTIONS TO VISIBILITY.

TXZ049-054-064>066-071>073-076>078-098-099-113-114-127-128-139-140-
154-155-168>170-271900
...LOCATIONS ACROSS WEST CENTRAL TEXAS...

CITY           SKY/WX    TMP DP  RH WIND       PRES   REMARKS
SAN ANGELO     MOSUNNY   77  42  28 W8        29.77F
ABILENE        PTSUNNY   67  53  61 NW13      29.80S
DYESS AFB      PTSUNNY   66  55  69 N12       29.79S
JUNCTION       SUNNY     77  43  29 VRB6      29.75F
SWEETWATER     MOSUNNY   66  51  57 W12G17    29.84S
BROWNWOOD      MOSUNNY   72  57  60 NW8       29.77S
COLEMAN        PTCLDY    71  56  59 W6        29.78S
SONORA         SUNNY     75  39  27 VRB7G13   29.82F
OZONA          FAIR      75  34  22 NW10G25   29.83S
BRADY          MOSUNNY   75  50  41 NW13      29.76S
$$

TEXAS PANHANDLE/OKLAHOMA PANHANDLE

CITY           SKY/WX    TMP DP  RH WIND       PRES   REMARKS
AMARILLO       LGT RAIN  42  40  92 N24G36    29.93R WCI  32
BORGER         RAIN      44  41  89 NE18G28   29.96S FOG     WCI  36
CANADIAN       RAIN      46  45  96 NE15      29.96R WCI  39
DALHART        LGT RAIN  40  37  89 N35G40    30.04S FOG     WCI  28
DUMAS          LGT RAIN  39  38  97 N28G38    29.99R WCI  28
GUYMON         NOT AVBL
HEREFORD       RAIN      43  42  97 MISG      29.95R
PAMPA          RAIN      42  40  95 NE23      29.94S WCI  32
PERRYTON       CLOUDY    42  40  93 NE29G37   29.99R WCI  31
$$

SOUTHERN PANHANDLE/SOUTH PLAINS/ROLLING PLAINS

CITY           SKY/WX    TMP DP  RH WIND       PRES   REMARKS
LUBBOCK        LGT RAIN  50  48  93 N22G30    29.86S FOG
SNYDER         CLOUDY    63  49  59 W6        29.83S
CHILDRESS      CLOUDY    57  49  74 N15       29.83R
SEMINOLE       PTCLDY    64  43  46 N18G25    29.89S
$$

PERMIAN BASIN

CITY           SKY/WX    TMP DP  RH WIND       PRES   REMARKS
MIDLAND        PTSUNNY   66  46  48 N20       29.84S
ODESSA         PTSUNNY   63  42  46 N21G32    29.85S
WINK           PTSUNNY   69  40  34 N15G21    29.85F
$$

FAR WEST/SOUTHWEST MOUNTAINS/TRANS PECOS

CITY           SKY/WX    TMP DP  RH WIND       PRES   REMARKS
ALPINE         CLEAR     67  32  27 W15G22    29.95F
DRYDEN           N/A     80  29  15 W10G25    29.78F
EL PASO        PTSUNNY   63  37  38 N7G16     29.95R
FORT STOCKTON  SUNNY     69  39  33 NW14G25   29.88S
GUADALUPE PASS CLOUDY    53  37  54 NE9       29.98R
MARFA          SUNNY     64  32  29 NW15G25   29.95S
PECOS          PTCLDY    68  40  36 NW15G23   29.86F
$$

DALLAS/FORT WORTH METROPLEX

CITY           SKY/WX    TMP DP  RH WIND       PRES   REMARKS
DFW AIRPORT    CLOUDY    68  57  68 VRB5      29.76S
FTW MEACHAM    CLOUDY    69  58  67 E12       29.75F
DAL-EXECUTIVE  CLOUDY    67  58  72 E12       29.76R
GRAND PRAIRIE  PTSUNNY   68  57  68 E9        29.78R
ADDISON        CLOUDY    68  55  64 E12       29.77
MESQUITE       MOCLDY    70  59  68 E10G16    29.76R
LANCASTER      CLOUDY    65  57  75 E5        29.76R
$$

NORTH CENTRAL TEXAS

CITY           SKY/WX    TMP DP  RH WIND       PRES   REMARKS
SHRMAN/DENISON CLOUDY    65  58  78 E9        29.81R
GAINESVILLE    CLOUDY    58  54  85 E9        29.84R
BRIDGEPORT     CLOUDY    66  60  82 SE9       29.77S
DENTON         CLOUDY    65  57  75 NE9       29.78S
WAXAHACHIE     CLOUDY    67  62  82 CALM      29.77R
GRANBURY         N/A     72  61  69 SE7       29.76S
$$

WESTERN NORTH TEXAS

CITY           SKY/WX    TMP DP  RH WIND       PRES   REMARKS
WICHITA FALLS  CLOUDY    60  59  96 E6        29.77S
VERNON         CLOUDY    60  52  74 NE14      29.80S
BRECKENRIDGE   MOCLDY    69  57  64 NW10G16   29.77F
COMANCHE       MOSUNNY   71  62  71 NW6       29.77S
$$

CENTRAL AND SOUTH CENTRAL TEXAS

CITY           SKY/WX    TMP DP  RH WIND       PRES   REMARKS
AUSTIN/BERGSTM MOSUNNY   77  64  64 N6        29.71S
WACO           CLOUDY    74  63  68 W3        29.72R
HILLSBORO      CLOUDY    70  61  72 E5        29.74R
TEMPLE         PTSUNNY   75  61  60 W9        29.71S
KILLEEN-GRAY   PTSUNNY   75  63  64 NW6       29.71F
FORT HOOD      PTSUNNY   74  62  66 VRB5      29.71F
GEORGETOWN     CLOUDY    73  63  68 W8        29.72S
LAGO VISTA     CLOUDY    76  63  64 W10       29.74S
SAN MARCOS     PTSUNNY   77  64  65 NE3       29.73S
NEW BRAUNFELS  MOSUNNY   79  65  62 VRB5      29.70F
RANDOLPH AFB   MOSUNNY   77  65  65 VRB3      29.71F
SAN ANTONIO    MOSUNNY   80  63  55 S3        29.72F
STINSON        SUNNY     82  64  54 VRB3      29.69F
PLEASANTON     NOT AVBL
LA GRANGE      SUNNY     80  71  74 CALM      29.68S
GIDDINGS       CLEAR     77  66  68 SE6       29.72F
$$

EAST TEXAS

CITY           SKY/WX    TMP DP  RH WIND       PRES   REMARKS
PARIS          MOSUNNY   66  52  59 MISG      29.81R
CLARKSVILLE    NOT AVBL
TYLER          MOSUNNY   72  59  63 E15G21    29.73S
LONGVIEW       PTSUNNY   68  56  65 E17G23    29.74F
PALESTINE      CLEAR    N/A N/A N/A E17       29.72S
NACOGDOCHES    MOSUNNY   72  61  68 SE17G26   29.73R
$$

TEXAS HILL COUNTRY AND EDWARDS PLATEAU

CITY           SKY/WX    TMP DP  RH WIND       PRES   REMARKS
LLANO          PTCLDY    73  61  64 N7        29.78F
HORSESHOE BAY  FAIR      73  62  69 N6        29.76S
KERRVILLE      MOSUNNY   76  52  42 CALM      29.75F
FREDERICKSBRG  MOSUNNY   74  58  57 NW8       29.75F
ROCKSPRINGS    CLEAR     75  39  27 NW14      29.80S
HONDO          SUNNY     82  52  35 NW10      29.74F
UVALDE         PTCLDY    79  46  30 NW10G21   29.75F
DEL RIO        SUNNY     83  35  18 W9G23     29.73F
$$

SOUTHEAST TEXAS

CITY           SKY/WX    TMP DP  RH WIND       PRES   REMARKS
COLLEGE STN    SUNNY     78  67  68 S3        29.67F
CALDWELL       CLEAR     75  70  83 S3        29.71F
CROCKETT       NOT AVBL
BRENHAM        SUNNY     81  69  67 SE7       29.68F
HUNTSVILLE     SUNNY     77  65  66 E5        29.68F
CONROE         MOSUNNY   77  65  66 E12       29.68F
HOUSTON BUSH   CLOUDY    75  66  73 E9        29.68S
HOUSTON HOBBY  CLOUDY    75  66  73 E8        29.68S
PERLAND        CLOUDY    75  66  73 E7        29.70R
WHARTON        MOCLDY    76  67  74 E6        29.67F
$$

THE UPPER TEXAS COAST

CITY           SKY/WX    TMP DP  RH WIND       PRES   REMARKS
ORANGE         MOCLDY    69  61  75 E12       29.72F
PORT ARTHUR    PTSUNNY   73  64  73 E20       29.69F
GALVESTON      CLOUDY    74  67  78 E22G28    29.67R
ANGLETON       CLOUDY    75  68  78 E9        29.67R
BAY CITY       CLOUDY    76  71  85 NE7       29.67S
$$

TEXAS COASTAL BEND, RIO GRANDE PLAINS DEEP SOUTH TEXAS

CITY           SKY/WX    TMP DP  RH WIND       PRES   REMARKS
VICTORIA       CLOUDY    81  71  71 NE10      29.67F
BEEVILLE       FAIR      82  68  62 N8        29.68F
ROCKPORT       PTSUNNY   84  74  71 N12       29.64F
PORT ARANSAS   MOCLDY    81  75  81 N9        29.64F
PORT LAVACA    CLOUDY    75  69  81 NE13      29.67S
CORPUS CHRISTI PTSUNNY   82  69  64 N13       29.65F
KINGSVILLE NAS PTSUNNY   84  70  62 NW9       29.67F
COTULLA        SUNNY     86  47  25 NW15      29.72F
LAREDO         MOSUNNY   85  48  27 N13G20    29.74F
BROWNSVILLE    CLOUDY    83  73  72 NW13G21   29.63F
PORT ISABEL    LGT RAIN  86  73  65 NW17      29.63F
HEBBRONVILLE     N/A     81  53  38 NW12      29.73S
MCALLEN        PTSUNNY   86  65  49 NW14      29.69S
WESLACO        PTSUNNY   80  66  63 NW14G22   29.67S
FALFURRIAS     MOCLDY    82  65  56 N3        29.68F
EDINBURG       MOCLDY    85  64  50 N12G20    29.68F
$$



USA.gov is the U.S. government's official web portal to all federal, state and local government web resources and services.